TimeCST,TemperatureF,Dew PointF,Humidity,Sea Level PressureIn,VisibilityMPH,Wind Direction,Wind SpeedMPH,Gust SpeedMPH,PrecipitationIn,Events,Conditions,WindDirDegrees,DateUTC
12:53 AM,25.0,16.0,69,30.71,10.0,SSE,5.8,-,N/A,,Clear,150,2013-11-13 06:53:00
1:53 AM,24.1,16.0,71,30.70,10.0,SSE,4.6,-,N/A,,Clear,150,2013-11-13 07:53:00
2:53 AM,24.1,16.0,71,30.69,10.0,South,6.9,-,N/A,,Clear,190,2013-11-13 08:53:00
3:53 AM,23.0,15.1,72,30.68,10.0,SW,6.9,-,N/A,,Clear,220,2013-11-13 09:53:00
4:53 AM,21.9,15.1,75,30.67,10.0,SW,8.1,-,N/A,,Clear,220,2013-11-13 10:53:00
5:53 AM,23.0,16.0,74,30.66,10.0,SSW,10.4,-,N/A,,Clear,210,2013-11-13 11:53:00
6:53 AM,24.1,15.1,69,30.65,10.0,SSW,8.1,-,N/A,,Clear,200,2013-11-13 12:53:00
7:53 AM,27.0,15.1,61,30.64,10.0,SSW,15.0,-,N/A,,Clear,210,2013-11-13 13:53:00
8:53 AM,30.0,15.1,54,30.63,10.0,SSW,18.4,-,N/A,,Clear,200,2013-11-13 14:53:00
9:53 AM,34.0,15.1,46,30.61,10.0,SSW,20.7,-,N/A,,Clear,200,2013-11-13 15:53:00
10:53 AM,37.9,16.0,41,30.59,10.0,SSW,15.0,-,N/A,,Clear,200,2013-11-13 16:53:00
11:53 AM,42.1,16.0,35,30.56,10.0,South,15.0,-,N/A,,Clear,190,2013-11-13 17:53:00
12:53 PM,45.0,17.1,33,30.51,10.0,SSW,16.1,-,N/A,,Clear,200,2013-11-13 18:53:00
1:53 PM,48.9,18.0,29,30.44,10.0,South,18.4,-,N/A,,Clear,190,2013-11-13 19:53:00
2:53 PM,50.0,17.1,27,30.41,10.0,South,19.6,-,N/A,,Clear,190,2013-11-13 20:53:00
3:53 PM,51.1,17.1,26,30.38,10.0,South,19.6,-,N/A,,Clear,180,2013-11-13 21:53:00
4:53 PM,48.9,17.1,28,30.36,10.0,South,20.7,-,N/A,,Clear,180,2013-11-13 22:53:00
5:53 PM,45.0,16.0,31,30.35,10.0,South,15.0,-,N/A,,Clear,170,2013-11-13 23:53:00
6:53 PM,43.0,15.1,32,30.34,10.0,South,18.4,-,N/A,,Clear,170,2013-11-14 00:53:00
7:53 PM,42.1,14.0,32,30.33,10.0,South,17.3,-,N/A,,Clear,180,2013-11-14 01:53:00
8:53 PM,42.1,12.9,31,30.31,10.0,South,21.9,-,N/A,,Clear,180,2013-11-14 02:53:00
9:53 PM,39.9,12.9,33,30.30,10.0,South,19.6,-,N/A,,Clear,180,2013-11-14 03:53:00
10:53 PM,41.0,12.9,32,30.27,10.0,South,20.7,-,N/A,,Clear,190,2013-11-14 04:53:00
11:53 PM,39.9,18.0,41,30.25,10.0,South,20.7,-,N/A,,Clear,190,2013-11-14 05:53:00